User: anonymous   Login
Location: Newark
(30.1000°N, 109.4667°E)
Time: 20:53:05
(UTC+00:00)
Language:

Courier 1B Rocket - Orbit

View from above orbital plane
View from above orbital plane
View from above satellite
View from above satellite

Ground track
Ground track

The orbit data is extracted from the following two-line orbital elements,

1 00059U 60013B   21023.56666184  .00000091  00000-0  47658-5 0  9999
2 00059  28.2478 167.5284 0189276 333.6407  25.4614 13.52982383976344
Epoch (UTC): 23 January 2021 13:35:59
Eccentricity: 0.0189276
inclination: 28.2478°
perigee height: 920 km
apogee height: 1202 km
right ascension of ascending node: 167.5284°
argument of perigee: 333.6407°
revolutions per day: 13.52982383
mean anomaly at epoch: 25.4614°
orbit number at epoch: 97634

The dashed part of the orbit path shows where the satellite is in the earth's shadow,  

DLR